Weather in Shinyanga

Tanzania     3°40′12″S   33°25′30″E
temp.,
°C
wind,
m/s
gust,
m/s
humid.,
%
clouds,
%
prec.,
mm/h
press.,
hPa
HPBL,
m
16 april, fri
fri1600:00+19se228997 1.0 101335
03:00+18se119256 2.1 101211
06:00+18ese119565 1.8 101344
09:00+21se138228 1.9 1014467
12:00+26sse336380 0.3 10121206
15:00+25ssw2367100 3.8 1010997
18:00+22sw5881100 2.9 1010382
21:00+19ssw279393 3.7 1013214
17 april, sat
sat1700:00+19ese2793100 0.1 1014362
03:00+18se379198 0.1 1012308
06:00+18ene2391100 0.0 1013112
09:00+21se247964 0.0 1015392
12:00+25se346498 0.0 10131321
15:00+27ese2354100 0.1 10091727
18:00+24sw337588 0.4 101064
21:00+19s2491100 3.2 101482
18 april, sun
sun1800:00+20sse1190100 1.8 101423
03:00+18se249361 3.1 1013111
06:00+17se269536 0.0 1015168
09:00+21ese468213 0.0 1016558
12:00+25ese576394 0.0 10141496
15:00+24sse3672100 0.1 1011721
18:00+23se357731 0.8 1012187
21:00+19se399230 5.0 1014217
19 april, mon
mon1900:00+19sse379297 0.6 1015225
03:00+18se239598 0.6 101490
06:00+17se2596100 0.0 1015132
09:00+20ese478392 0.0 1016604
12:00+24ese4566100 0.1 10151342
15:00+25sse2362100 0.1 10111132
18:00+23sw237544 0.1 1011106
21:00+19sse398775 0.9 1014208
20 april, tue
tue2000:00+19sse398930 0.0 1015371
03:00+18se259596 0.0 1013125
06:00+17se229588 0.0 101423
09:00+20sse238118 0.0 1016406
12:00+25se346388 0.0 10141392
15:00+25se2361100 0.1 10101089
18:00+23sse2372100 0.3 101155
21:00+20s3586100 0.8 1013111